Location: Krasnoyarskiy Pitomnik
(51.1333°N, 71.6167°E)
Time: 04:20:40
(UTC+00:00)

Transit 2A - Pass Details

Date: 19 April 2024
Orbit: 594 x 958 km, 66.7° (Epoch: 21 May)

Event Time Altitude Azimuth Distance (km) Brightness Sun altitude
Rises 02:04:01 0° 205° (SSW) 2,843 8.7 16.8°
Reaches altitude 10° 02:06:13 10° 202° (SSW) 1,965 8.0 17.2°
Maximum altitude 02:10:32 61° 122° (ESE) 730 6.7 17.8°
Drops below altitude 10° 02:15:15 10° 43° (NE) 2,134 9.0 18.6°
Sets 02:17:43 0° 40° (NE) 3,111 9.6 19.0°
